TimeEST,TemperatureF,Dew PointF,Humidity,Sea Level PressureIn,VisibilityMPH,Wind Direction,Wind SpeedMPH,Gust SpeedMPH,PrecipitationIn,Events,Conditions,WindDirDegrees,DateUTC
12:56 AM,30.9,28.0,89,30.50,10.0,Calm,Calm,-,N/A,,Overcast,0,2012-11-11 05:56:00
1:56 AM,35.1,30.9,85,30.51,10.0,Calm,Calm,-,N/A,,Overcast,0,2012-11-11 06:56:00
2:56 AM,36.0,32.0,86,30.49,10.0,Calm,Calm,-,N/A,,Overcast,0,2012-11-11 07:56:00
3:56 AM,37.0,33.1,86,30.51,10.0,NW,4.6,-,N/A,,Overcast,320,2012-11-11 08:56:00
4:56 AM,39.0,34.0,82,30.53,10.0,Calm,Calm,-,N/A,,Overcast,0,2012-11-11 09:56:00
5:56 AM,39.0,34.0,82,30.51,10.0,Calm,Calm,-,N/A,,Overcast,0,2012-11-11 10:56:00
6:56 AM,39.0,35.1,86,30.53,10.0,Calm,Calm,-,N/A,,Overcast,0,2012-11-11 11:56:00
7:56 AM,42.1,36.0,79,30.54,10.0,Calm,Calm,-,N/A,,Overcast,0,2012-11-11 12:56:00
8:56 AM,48.9,41.0,74,30.51,10.0,SSE,9.2,-,N/A,,Overcast,160,2012-11-11 13:56:00
9:56 AM,54.0,43.0,66,30.53,10.0,SSW,10.4,17.3,N/A,,Mostly Cloudy,200,2012-11-11 14:56:00
10:56 AM,55.0,43.0,64,30.51,10.0,SW,13.8,-,N/A,,Mostly Cloudy,220,2012-11-11 15:56:00
11:56 AM,59.0,43.0,55,30.48,10.0,South,8.1,-,N/A,,Overcast,190,2012-11-11 16:56:00
12:56 PM,61.0,43.0,52,30.46,10.0,South,8.1,-,N/A,,Clear,190,2012-11-11 17:56:00
1:56 PM,62.1,41.0,46,30.44,10.0,SSW,15.0,-,N/A,,Clear,210,2012-11-11 18:56:00
2:56 PM,62.1,41.0,46,30.44,10.0,SSW,11.5,-,N/A,,Clear,210,2012-11-11 19:56:00
3:56 PM,60.1,41.0,49,30.44,10.0,SSW,8.1,-,N/A,,Clear,200,2012-11-11 20:56:00
4:56 PM,55.9,39.9,55,30.45,10.0,South,5.8,-,N/A,,Clear,190,2012-11-11 21:56:00
5:56 PM,55.0,42.1,62,30.47,10.0,South,6.9,-,N/A,,Clear,190,2012-11-11 22:56:00
6:56 PM,54.0,43.0,66,30.47,10.0,SSW,9.2,-,N/A,,Clear,210,2012-11-11 23:56:00
7:56 PM,53.1,44.1,71,30.48,10.0,SSW,8.1,-,N/A,,Clear,210,2012-11-12 00:56:00
8:56 PM,51.1,44.1,77,30.49,10.0,SSW,5.8,-,N/A,,Clear,210,2012-11-12 01:56:00
9:56 PM,50.0,43.0,77,30.49,10.0,SSW,5.8,-,N/A,,Clear,200,2012-11-12 02:56:00
10:56 PM,50.0,44.1,80,30.49,10.0,SW,5.8,-,N/A,,Clear,220,2012-11-12 03:56:00
11:56 PM,50.0,43.0,77,30.48,10.0,South,5.8,-,N/A,,Clear,190,2012-11-12 04:56:00